Bel Air, Maryland - USA


Today's Data File


9/4/26
Time         Wind Dir   Wind Spd  Wind Gust     Hum In   Humidity    Temp In       Temp  Raw Barom Wind Chill  Press Alt Cloud Base   Dens Alt Temp Out R  DailyRain   24HrRain   RainRate
                    �        mph        mph          %          %         �F         �F         in         �F         ft         ft         ft      �F/hr         in         in      in/hr
12:00am           350          1          2         44         99       72.6       76.1      29.33       76.1        547         74       1792      -0.58       0.60       0.60      0.040
12:01am           350          1          1         44         99       72.6       76.1      29.33       76.1        547         74       1792      -0.56       0.00       0.60      0.040
12:02am           350          2          2         44         99       72.6       76.1      29.34       76.1        545         74       1790      -0.56       0.00       0.60      0.040
12:03am           350          1          2         44         99       72.6       76.1      29.34       76.1        543         74       1788      -0.55       0.00       0.60      0.000
12:04am           350          1          2         44         99       72.6       76.0      29.34       76.0        542         74       1780      -0.64       0.00       0.60      0.000
12:05am           350          0          3         44         99       72.6       76.1      29.34       76.1        543         74       1788      -0.53       0.00       0.60      0.000
12:06am           350          1          2         44         99       72.6       76.0      29.34       76.0        542         74       1780      -0.62       0.00       0.60      0.000
12:07am           330          1          3         44         99       72.6       76.0      29.34       76.0        541         74       1779      -0.61       0.00       0.60      0.000
12:08am           331          2          3         44         99       72.6       76.0      29.34       76.0        540         74       1778      -0.60       0.00       0.60      0.000
12:09am           285          3          3         44         99       72.4       75.9      29.34       75.9        540         74       1772      -0.69       0.00       0.60      0.000
12:10am           314          2          5         44         99       72.4       75.9      29.34       75.9        540         74       1772      -0.68       0.00       0.60      0.000
12:11am           322          3          3         44         99       72.4       75.9      29.34       75.9        540         74       1772      -0.67       0.00       0.60      0.000
12:12am           353          2          5         44         99       72.4       75.9      29.34       75.9        540         74       1772      -0.66       0.00       0.60      0.000
12:13am           353          2          5         44         99       72.4       75.8      29.34       75.8        540         74       1766      -0.75       0.00       0.60      0.000
12:14am           350          2          5         44         99       72.4       75.8      29.34       75.8        539         74       1764      -0.73       0.00       0.60      0.000
12:15am           314          4          5         44         99       72.4       75.8      29.34       75.8        539         74       1764      -0.72       0.00       0.60      0.000
12:16am           293          1          4         44         99       72.6       75.8      29.34       75.8        539         74       1764      -0.71       0.00       0.60      0.000
12:17am            66          1          4         44         99       72.6       75.8      29.34       75.8        539         74       1764      -0.70       0.00       0.60      0.000
12:18am           320          2          4         44         99       72.6       75.8      29.34       75.8        538         74       1763      -0.69       0.00       0.60      0.000
12:19am           337          2          4         44         99       72.6       75.8      29.34       75.8        538         74       1763      -0.68       0.00       0.60      0.000
12:20am           234          3          4         44         99       72.6       75.8      29.34       75.8        539         74       1764      -0.66       0.00       0.60      0.000
12:21am            85          2          7         44         99       72.6       75.7      29.34       75.7        539         74       1758      -0.75       0.00       0.60      0.000
12:22am            95          1          7         44         99       72.6       75.7      29.34       75.7        539         74       1758      -0.74       0.00       0.60      0.000
12:23am           234          1          7         44         99       72.6       75.7      29.34       75.7        539         74       1758      -0.73       0.00       0.60      0.000
12:24am           172          2          7         44         99       72.6       75.6      29.34       75.6        541         74       1754      -0.82       0.00       0.60      0.000
12:25am            25          2          7         44         99       72.6       75.6      29.34       75.6        542         74       1755      -0.80       0.00       0.60      0.000
12:26am            26          1          2         44         98       72.6       75.5      29.34       75.5        543        150       1750      -0.89       0.00       0.60      0.000
12:27am            36          1          2         44         99       72.6       75.5      29.34       75.5        542         74       1749      -0.88       0.00       0.60      0.000
12:28am           264          0          5         44         98       72.6       75.5      29.34       75.5        543        150       1750      -0.86       0.00       0.60      0.000
12:29am           264          0          5         44         98       72.6       75.5      29.34       75.5        545        150       1752      -0.85       0.00       0.60      0.000
12:30am           264          0          5         44         98       72.6       75.4      29.33       75.4        547        150       1748      -0.93       0.00       0.60      0.000
12:31am           264          0          0         44         98       72.6       75.4      29.33       75.4        548        150       1749      -0.92       0.00       0.60      0.000
12:32am           264          0          0         44         98       72.6       75.4      29.33       75.4        548        150       1749      -0.90       0.00       0.60      0.000
12:33am           264          0          0         44         98       72.6       75.4      29.33       75.4        549        150       1752      -0.89       0.00       0.60      0.000
12:34am           265          0          0         44         98       72.6       75.4      29.33       75.4        552        150       1755      -0.87       0.00       0.60      0.000
12:35am           317          2          5         44         98       72.6       75.3      29.33       75.3        552        150       1749      -0.96       0.00       0.60      0.000
12:36am           317          1          3         44         98       72.6       75.2      29.33       75.2        553        150       1744      -1.04       0.00       0.60      0.000
12:37am           317          2          3         44         98       72.6       75.2      29.33       75.2        553        150       1744      -1.02       0.00       0.60      0.000
12:38am           320          1          3         44         98       72.6       75.1      29.33       75.1        554        150       1738      -1.10       0.00       0.60      0.000
12:39am           320          0          3         44         98       72.6       75.1      29.33       75.1        554        150       1738      -1.09       0.00       0.60      0.000
12:40am           320          0          3         44         98       72.6       75.1      29.33       75.1        554        150       1738      -1.07       0.00       0.60      0.000
12:41am           320          0          1         44         98       72.6       75.1      29.32       75.1        555        150       1740      -1.05       0.00       0.60      0.000
12:42am           320          0          2         44         98       72.6       75.1      29.32       75.1        555        150       1740      -1.03       0.00       0.60      0.000
12:43am           320          0          2         44         98       72.6       75.1      29.32       75.1        555        150       1740      -1.02       0.00       0.60      0.000
12:44am           320          1          2         44         98       72.6       75.0      29.32       75.0        555        150       1733      -1.10       0.00       0.60      0.000
12:45am           320          1          2         44         98       72.6       75.0      29.32       75.0        555        150       1733      -1.08       0.00       0.60      0.000
12:46am           320          0          1         44         98       72.6       74.9      29.32       74.9        555        150       1727      -1.16       0.00       0.60      0.000
12:47am           320          1          2         44         98       72.4       74.9      29.32       74.9        555        150       1727      -1.14       0.00       0.60      0.000
12:48am           320          1          2         44         98       72.4       74.9      29.32       74.9        556        150       1728      -1.12       0.00       0.60      0.000
12:49am           320          1          2         44         98       72.4       74.9      29.32       74.9        557        150       1729      -1.10       0.00       0.60      0.000
12:50am           320          1          2         44         98       72.4       74.8      29.32       74.8        557        150       1723      -1.18       0.00       0.60      0.000
12:51am           320          1          2         44         98       72.4       74.8      29.32       74.8        556        150       1722      -1.16       0.00       0.60      0.000
12:52am           320          0          2         44         98       72.4       74.7      29.32       74.7        556        149       1715      -1.25       0.00       0.60      0.000
12:53am           320          0          2         44         98       72.4       74.7      29.32       74.7        556        149       1715      -1.22       0.00       0.60      0.000
12:54am           331          1          3         44         98       72.4       74.7      29.32       74.7        557        149       1717      -1.20       0.00       0.60      0.000
12:55am           331          0          3         44         98       72.4       74.6      29.32       74.6        557        149       1710      -1.28       0.00       0.60      0.000
12:56am            87          1          2         44         98       72.4       74.6      29.32       74.6        560        149       1714      -1.26       0.00       0.60      0.000
12:57am            87          1          2         44         98       72.4       74.5      29.32       74.5        560        149       1707      -1.34       0.00       0.60      0.000
12:58am            87          1          2         44         98       72.4       74.5      29.32       74.5        559        149       1706      -1.32       0.00       0.60      0.000
12:59am            87          1          2         44         98       72.4       74.5      29.32       74.5        560        149       1708      -1.29       0.00       0.60      0.000
1:00am             87          0          2         44         98       72.4       74.4      29.32       74.4        561        149       1703      -1.37       0.00       0.60      0.000
1:01am             87          1          1         44         98       72.6       74.4      29.32       74.4        563        149       1706      -1.35       0.00       0.60      0.000
1:02am             87          1          2         44         98       72.6       74.4      29.32       74.4        561        149       1703      -1.33       0.00       0.60      0.000
1:03am             87          2          2         44         98       72.6       74.3      29.32       74.3        563        149       1699      -1.40       0.00       0.60      0.000
1:04am             87          2          2         44         98       72.6       74.3      29.32       74.3        564        149       1700      -1.38       0.00       0.60      0.000
1:05am             87          1          2         44         98       72.6       74.2      29.32       74.2        561        149       1691      -1.46       0.00       0.60      0.000
1:06am             87          0          1         44         98       72.6       74.2      29.32       74.2        560        149       1689      -1.43       0.00       0.60      0.000
1:07am             87          0          1         44         98       72.6       74.1      29.32       74.1        560        149       1683      -1.51       0.00       0.60      0.000
1:08am             87          0          1         44         98       72.6       74.1      29.32       74.1        560        149       1683      -1.48       0.00       0.60      0.000
1:09am            218          1          3         44         98       72.6       74.0      29.32       74.0        562        149       1679      -1.56       0.00       0.60      0.000
1:10am            218          0          3         44         98       72.6       74.0      29.32       74.0        561        149       1678      -1.53       0.00       0.60      0.000
1:11am            255          1          2         44         98       72.6       73.9      29.32       73.9        559        149       1668      -1.61       0.00       0.60      0.000
1:12am            216          2          3         45         97       72.6       73.8      29.32       73.8        559        225       1662      -1.68       0.00       0.60      0.000
1:13am            216          1          3         44         98       72.6       73.7      29.32       73.7        560        149       1657      -1.75       0.00       0.60      0.000
1:14am            216          2          3         44         98       72.6       73.7      29.32       73.7        560        149       1657      -1.72       0.00       0.60      0.000
1:15am            216          0          3         44         98       72.6       73.7      29.32       73.7        560        149       1658      -1.69       0.00       0.60      0.000
1:16am            216          0          1         44         98       72.8       73.8      29.32       73.8        561        149       1665      -1.57       0.00       0.60      0.000
1:17am            216          1          1         44         98       72.8       73.7      29.32       73.7        562        149       1660      -1.64       0.00       0.60      0.000
1:18am            216          0          1         44         98       72.8       73.7      29.32       73.7        562        149       1660      -1.61       0.00       0.60      0.000
1:19am            216          1          2         44         97       72.8       73.7      29.32       73.7        563        225       1661      -1.59       0.00       0.60      0.000
1:20am            216          0          2         44         97       72.8       73.7      29.32       73.7        562        225       1660      -1.56       0.00       0.60      0.000
1:21am            216          0          0         44         97       72.8       73.6      29.32       73.6        560        225       1652      -1.63       0.00       0.60      0.000
1:22am            216          0          0         44         97       72.6       73.6      29.32       73.6        560        225       1650      -1.60       0.00       0.60      0.000
1:23am            216          0          0         44         97       72.6       73.5      29.32       73.5        558        225       1642      -1.68       0.00       0.60      0.000
1:24am            216          0          0         44         97       72.6       73.5      29.32       73.5        556        225       1640      -1.65       0.00       0.60      0.000
1:25am            216          0          0         44         97       72.6       73.5      29.32       73.5        555        225       1638      -1.62       0.00       0.60      0.000
1:26am            216          0          0         44         98       72.6       73.5      29.32       73.5        555        149       1638      -1.60       0.00       0.60      0.000
1:27am            216          0          0         44         98       72.6       73.5      29.33       73.5        554        149       1637      -1.57       0.00       0.60      0.000
1:28am            216          0          0         44         98       72.6       73.6      29.33       73.6        554        149       1644      -1.45       0.00       0.60      0.000
1:29am            216          0          0         44         97       72.6       73.5      29.33       73.5        554        225       1637      -1.52       0.00       0.60      0.000
1:30am            216          0          0         44         97       72.6       73.5      29.33       73.5        554        225       1637      -1.50       0.00       0.60      0.000
1:31am            216          0          0         44         97       72.6       73.5      29.33       73.5        554        225       1637      -1.47       0.00       0.60      0.000
1:32am            216          0          0         44         97       72.6       73.4      29.33       73.4        554        225       1631      -1.55       0.00       0.60      0.000
1:33am            216          0          0         44         97       72.6       73.4      29.33       73.4        553        225       1630      -1.52       0.00       0.60      0.000
1:34am            216          0          0         44         97       72.6       73.3      29.33       73.3        553        225       1623      -1.59       0.00       0.60      0.000
1:35am            216          0          0         44         97       72.6       73.3      29.33       73.3        553        225       1623      -1.57       0.00       0.60      0.000
1:36am            216          0          0         44         97       72.4       73.3      29.33       73.3        554        225       1625      -1.54       0.00       0.60      0.000
1:37am            216          0          0         44         97       72.4       73.2      29.33       73.2        554        225       1618      -1.61       0.00       0.60      0.000
1:38am            216          0          0         44         98       72.4       73.2      29.33       73.2        554        149       1618      -1.59       0.00       0.60      0.000
1:39am            216          0          0         44         97       72.4       73.2      29.33       73.2        554        225       1618      -1.56       0.00       0.60      0.000
1:40am            216          0          0         44         97       72.4       73.1      29.33       73.1        554        224       1612      -1.63       0.00       0.60      0.000
1:41am            216          0          0         44         97       72.6       73.0      29.33       73.0        554        224       1606      -1.71       0.00       0.60      0.000
1:42am            216          0          0         44         97       72.6       73.0      29.33       73.0        554        224       1606      -1.68       0.00       0.60      0.000
1:43am            216          0          0         44         97       72.6       73.0      29.33       73.0        553        224       1604      -1.65       0.00       0.60      0.000
1:44am            216          0          0         44         97       72.6       73.0      29.33       73.0        551        224       1602      -1.62       0.00       0.60      0.000
1:45am            216          0          0         44         97       72.6       73.0      29.33       73.0        551        224       1602      -1.59       0.00       0.60      0.000
1:46am            216          0          0         44         97       72.6       72.9      29.33       72.9        551        224       1596      -1.67       0.00       0.60      0.000
1:47am            216          0          0         44         97       72.6       72.9      29.33       72.9        553        224       1598      -1.64       0.00       0.60      0.000
1:48am            216          0          0         44         97       72.6       72.8      29.33       72.8        554        224       1593      -1.71       0.00       0.60      0.000
1:49am            216          0          0         44         97       72.6       72.8      29.32       72.8        557        224       1596      -1.68       0.00       0.60      0.000
1:50am            216          0          0         44         97       72.6       72.8      29.32       72.8        558        224       1597      -1.65       0.00       0.60      0.000
1:51am            216          0          0         44         97       72.6       72.8      29.32       72.8        558        224       1597      -1.63       0.00       0.60      0.000
1:52am            216          0          0         44         97       72.6       72.7      29.32       72.7        556        224       1589      -1.70       0.00       0.60      0.000
1:53am            216          0          0         45         97       72.6       72.8      29.33       72.8        554        224       1593      -1.57       0.00       0.60      0.000
1:54am            216          0          0         44         97       72.6       72.7      29.33       72.7        553        224       1585      -1.64       0.00       0.60      0.000
1:55am            216          0          0         44         97       72.6       72.6      29.33       72.6        551        224       1577      -1.72       0.00       0.60      0.000
1:56am            216          0          0         44         97       72.6       72.6      29.33       72.6        550        224       1576      -1.69       0.00       0.60      0.000
1:57am            216          0          0         44         97       72.6       72.6      29.33       72.6        550        224       1576      -1.66       0.00       0.60      0.000
1:58am            216          0          0         44         97       72.6       72.6      29.33       72.6        549        224       1575      -1.63       0.00       0.60      0.000
1:59am            216          0          0         44         97       72.6       72.6      29.33       72.6        551        224       1577      -1.61       0.00       0.60      0.000
2:00am            216          0          0         44         97       72.8       72.5      29.33       72.5        553        224       1573      -1.68       0.00       0.60      0.000
2:01am            216          0          0         44         97       72.8       72.5      29.33       72.5        554        224       1574      -1.65       0.00       0.60      0.000
2:02am            216          0          0         44         97       72.8       72.5      29.33       72.5        554        224       1574      -1.62       0.00       0.60      0.000
2:03am            216          0          0         44         97       72.6       72.4      29.33       72.4        554        224       1567      -1.70       0.00       0.60      0.000
2:04am            216          0          0         44         97       72.6       72.4      29.32       72.4        555        224       1569      -1.67       0.00       0.60      0.000
2:05am            216          0          0         44         97       72.6       72.4      29.33       72.4        553        224       1566      -1.64       0.00       0.60      0.000
2:06am            216          0          0         44         97       72.6       72.3      29.33       72.3        553        224       1560      -1.71       0.00       0.60      0.000
2:07am            216          0          0         44         97       72.6       72.4      29.33       72.4        553        224       1566      -1.59       0.00       0.60      0.000
2:08am            216          0          0         44         97       72.6       72.4      29.33       72.4        553        224       1566      -1.56       0.00       0.60      0.000
2:09am            216          0          0         44         97       72.6       72.4      29.33       72.4        554        224       1567      -1.53       0.00       0.60      0.000
2:10am            216          0          0         44         97       72.6       72.3      29.32       72.3        555        224       1562      -1.61       0.00       0.60      0.000
2:11am            216          0          0         44         97       72.6       72.3      29.32       72.3        556        224       1563      -1.58       0.00       0.60      0.000
2:12am            216          0          0         44         97       72.6       72.3      29.32       72.3        555        224       1562      -1.55       0.00       0.60      0.000
2:13am            216          0          0         44         97       72.6       72.3      29.32       72.3        556        224       1563      -1.53       0.00       0.60      0.000
2:14am            216          0          0         44         97       72.6       72.2      29.32       72.2        555        224       1556      -1.60       0.00       0.60      0.000
2:15am            216          0          0         44         97       72.4       72.2      29.32       72.2        555        224       1556      -1.58       0.00       0.60      0.000
2:16am            216          0          0         44         97       72.4       72.2      29.32       72.2        555        224       1556      -1.55       0.00       0.60      0.000
2:17am            216          0          0         44         97       72.4       72.2      29.32       72.2        556        224       1557      -1.52       0.00       0.60      0.000
2:18am            216          0          0         44         97       72.4       72.2      29.32       72.2        555        224       1556      -1.50       0.00       0.60      0.000
2:19am            216          0          0         44         97       72.4       72.1      29.32       72.1        555        224       1550      -1.57       0.00       0.60      0.000
2:20am            216          0          0         44         97       72.4       72.1      29.32       72.1        555        224       1550      -1.54       0.00       0.60      0.000
2:21am            216          0          0         44         97       72.4       72.1      29.32       72.1        555        224       1550      -1.52       0.00       0.60      0.000
2:22am            216          0          0         44         97       72.4       72.0      29.32       72.0        556        223       1544      -1.59       0.00       0.60      0.000
2:23am            216          0          0         44         97       72.4       72.0      29.32       72.0        556        223       1544      -1.57       0.00       0.60      0.000
2:24am            216          0          0         44         97       72.4       72.1      29.32       72.1        556        224       1551      -1.44       0.00       0.60      0.000
2:25am            216          0          0         44         98       72.4       72.0      29.32       72.0        556        148       1544      -1.52       0.00       0.60      0.000
2:26am            216          0          0         44         98       72.4       72.0      29.32       72.0        555        148       1543      -1.49       0.00       0.60      0.000
2:27am            216          0          0         44         98       72.4       72.0      29.32       72.0        555        148       1543      -1.47       0.00       0.60      0.000
2:28am            216          0          0         44         98       72.4       71.9      29.32       71.9        555        148       1537      -1.54       0.00       0.60      0.000
2:29am            216          0          0         44         98       72.4       71.9      29.32       71.9        555        148       1537      -1.52       0.00       0.60      0.000
2:30am            216          0          0         44         98       72.4       71.9      29.32       71.9        555        148       1537      -1.49       0.00       0.60      0.000
2:31am            216          0          0         44         98       72.6       71.9      29.32       71.9        555        148       1537      -1.47       0.00       0.60      0.000
2:32am            216          0          0         44         98       72.6       71.9      29.32       71.9        556        148       1538      -1.44       0.00       0.60      0.000
2:33am            216          0          0         44         98       72.6       71.9      29.32       71.9        556        148       1538      -1.42       0.00       0.60      0.000
2:34am            216          0          0         44         98       72.6       71.8      29.32       71.8        555        148       1530      -1.50       0.00       0.60      0.000
2:35am            216          0          0         44         98       72.6       71.9      29.33       71.9        554        148       1536      -1.37       0.00       0.60      0.000
2:36am            216          0          0         44         98       72.6       71.9      29.33       71.9        553        148       1535      -1.35       0.00       0.60      0.000
2:37am            216          0          0         44         98       72.6       71.8      29.33       71.8        553        148       1528      -1.43       0.00       0.60      0.000
2:38am            216          0          0         44         98       72.6       71.8      29.33       71.8        553        148       1528      -1.40       0.00       0.60      0.000
2:39am            216          0          0         44         98       72.6       71.8      29.33       71.8        553        148       1528      -1.38       0.00       0.60      0.000
2:40am            216          0          0         44         98       72.6       71.8      29.33       71.8        553        148       1528      -1.36       0.00       0.60      0.000
2:41am            216          0          0         44         98       72.6       71.8      29.33       71.8        552        148       1527      -1.33       0.00       0.60      0.000
2:42am            216          0          0         44         98       72.6       71.7      29.33       71.7        553        148       1522      -1.41       0.00       0.60      0.000
2:43am            216          0          0         44         98       72.6       71.8      29.33       71.8        553        148       1528      -1.29       0.00       0.60      0.000
2:44am            216          0          0         44         98       72.6       71.8      29.33       71.8        553        148       1528      -1.27       0.00       0.60      0.000
2:45am            216          0          0         44         98       72.6       71.7      29.33       71.7        553        148       1522      -1.35       0.00       0.60      0.000
2:46am            216          0          0         44         98       72.6       71.7      29.33       71.7        553        148       1522      -1.33       0.00       0.60      0.000
2:47am            216          0          0         44         98       72.8       71.7      29.33       71.7        553        148       1522      -1.30       0.00       0.60      0.000
2:48am            216          0          0         44         98       72.8       71.7      29.33       71.7        553        148       1522      -1.28       0.00       0.60      0.000
2:49am            216          0          0         44         98       72.8       71.7      29.33       71.7        553        148       1522      -1.26       0.00       0.60      0.000
2:50am            216          0          0         44         98       72.8       71.6      29.33       71.6        553        148       1516      -1.34       0.00       0.60      0.000
2:51am            216          0          0         44         98       72.8       71.6      29.33       71.6        553        148       1516      -1.32       0.00       0.60      0.000
2:52am            216          0          0         44         98       72.8       71.6      29.33       71.6        553        148       1516      -1.29       0.00       0.60      0.000
2:53am            216          0          0         44         98       72.8       71.6      29.33       71.6        552        148       1514      -1.27       0.00       0.60      0.000
2:54am            218          1          2         44         98       72.8       71.6      29.33       71.6        552        148       1514      -1.25       0.00       0.60      0.000
2:55am            218          0          2         44         98       72.8       71.5      29.33       71.5        553        148       1509      -1.33       0.00       0.60      0.000
2:56am            218          0          1         43         98       72.8       71.5      29.33       71.5        553        148       1509      -1.31       0.00       0.60      0.000
2:57am            218          1          1         44         98       72.8       71.5      29.33       71.5        553        148       1509      -1.29       0.00       0.60      0.000
2:58am            218          1          2         44         98       72.8       71.5      29.33       71.5        553        148       1509      -1.27       0.00       0.60      0.000
2:59am            218          1          2         44         98       72.8       71.5      29.33       71.5        552        148       1508      -1.25       0.00       0.60      0.000
3:00am            218          0          2         44         98       72.8       71.5      29.33       71.5        552        148       1508      -1.23       0.00       0.60      0.000
3:01am            218          0          0         44         98       72.8       71.5      29.33       71.5        552        148       1508      -1.20       0.00       0.60      0.000
3:02am            218          0          0         45         98       72.6       71.5      29.33       71.5        553        148       1509      -1.18       0.00       0.60      0.000
3:03am            218          0          0         44         98       72.6       71.5      29.33       71.5        552        148       1508      -1.16       0.00       0.60      0.000
3:04am            218          0          0         44         98       72.6       71.4      29.33       71.4        552        148       1502      -1.24       0.00       0.60      0.000
3:05am            218          0          0         44         98       72.6       71.4      29.33       71.4        551        148       1501      -1.22       0.00       0.60      0.000
3:06am            218          0          0         44         98       72.6       71.3      29.33       71.3        551        147       1494      -1.30       0.00       0.60      0.000
3:07am            218          0          0         44         98       72.6       71.3      29.33       71.3        548        147       1490      -1.28       0.00       0.60      0.000
3:08am            218          0          0         44         98       72.6       71.2      29.33       71.2        548        147       1483      -1.36       0.00       0.60      0.000
3:09am            218          0          0         44         98       72.6       71.2      29.33       71.2        548        147       1484      -1.34       0.00       0.60      0.000
3:10am            218          0          0         44         98       72.6       71.2      29.33       71.2        546        147       1481      -1.31       0.00       0.60      0.000
3:11am            218          0          0         44         98       72.6       71.2      29.33       71.2        546        147       1481      -1.29       0.00       0.60      0.000
3:12am            218          0          0         44         98       72.6       71.2      29.34       71.2        543        147       1478      -1.27       0.00       0.60      0.000
3:13am            218          0          0         44         98       72.6       71.2      29.34       71.2        542        147       1476      -1.25       0.00       0.60      0.000
3:14am            218          0          0         44         98       72.6       71.2      29.34       71.2        540        147       1474      -1.23       0.00       0.60      0.000
3:15am            218          0          0         44         98       72.6       71.1      29.34       71.1        540        147       1468      -1.31       0.00       0.60      0.000
3:16am            218          0          0         44         98       72.6       71.1      29.34       71.1        538        147       1466      -1.28       0.00       0.60      0.000
3:17am            218          0          0         44         98       72.6       71.1      29.34       71.1        538        147       1466      -1.26       0.00       0.60      0.000
3:18am            218          0          0         44         98       72.6       71.2      29.34       71.2        538        147       1472      -1.14       0.00       0.60      0.000
3:19am            218          0          0         44         98       72.6       71.1      29.34       71.1        538        147       1466      -1.22       0.00       0.60      0.000
3:20am            218          0          0         44         98       72.6       71.1      29.34       71.1        537        147       1464      -1.20       0.00       0.60      0.000
3:21am            218          0          0         44         98       72.6       71.0      29.34       71.0        537        147       1458      -1.28       0.00       0.60      0.000
3:22am            218          0          0         44         98       72.6       71.1      29.34       71.1        537        147       1464      -1.16       0.00       0.60      0.000
3:23am            218          0          0         44         98       72.6       71.1      29.34       71.1        537        147       1464      -1.14       0.00       0.60      0.000
3:24am            218          0          0         44         98       72.6       71.1      29.34       71.1        537        147       1464      -1.12       0.00       0.60      0.000
3:25am            218          0          0         44         98       72.6       71.1      29.34       71.1        537        147       1464      -1.11       0.00       0.60      0.000
3:26am            218          0          0         44         98       72.6       71.0      29.34       71.0        536        147       1457      -1.19       0.00       0.60      0.000
3:27am            218          0          0         44         98       72.6       71.1      29.34       71.1        536        147       1463      -1.07       0.00       0.60      0.000
3:28am            218          0          0         43         98       72.8       71.1      29.34       71.1        536        147       1463      -1.05       0.00       0.60      0.000
3:29am            214          0          0         44         98       72.8       71.1      29.35       71.1        536        147       1462      -1.03       0.00       0.60      0.000
3:30am            214          0          0         44         98       72.8       71.1      29.35       71.1        536        147       1462      -1.02       0.00       0.60      0.000
3:31am            214          0          0         44         98       72.8       71.2      29.35       71.2        535        147       1467      -0.90       0.00       0.60      0.000
3:32am            183          2          4         44         98       72.8       71.2      29.35       71.2        535        147       1467      -0.89       0.00       0.60      0.000
3:33am            183          0          4         44         98       72.8       71.2      29.35       71.2        534        147       1466      -0.87       0.00       0.60      0.000
3:34am            183          0          4         44         98       72.8       71.2      29.35       71.2        533        147       1465      -0.86       0.00       0.60      0.000
3:35am            183          0          4         44         98       72.8       71.2      29.35       71.2        532        147       1464      -0.84       0.00       0.60      0.000
3:36am            183          0          0         44         98       72.8       71.3      29.35       71.3        530        147       1468      -0.73       0.00       0.60      0.000
3:37am            183          0          1         44         98       72.8       71.3      29.35       71.3        527        147       1465      -0.72       0.00       0.60      0.000
3:38am            183          0          1         44         98       72.8       71.3      29.36       71.3        525        147       1462      -0.71       0.00       0.60      0.000
3:39am            183          0          1         44         98       72.8       71.3      29.36       71.3        525        147       1462      -0.69       0.00       0.60      0.000
3:40am            183          0          1         44         98       72.8       71.3      29.36       71.3        526        147       1464      -0.68       0.00       0.60      0.000
3:41am            183          0          0         44         98       72.8       71.3      29.36       71.3        526        147       1464      -0.67       0.00       0.60      0.000
3:42am            183          1          1         44         98       72.8       71.3      29.36       71.3        526        147       1464      -0.66       0.00       0.60      0.000
3:43am            183          1          1         44         98       73.0       71.3      29.35       71.3        529        147       1467      -0.65       0.00       0.60      0.000
3:44am            183          1          2         44         98       73.0       71.3      29.35       71.3        530        147       1468      -0.64       0.00       0.60      0.000
3:45am            183          1          2         44         98       73.0       71.3      29.35       71.3        530        147       1468      -0.63       0.00       0.60      0.000
3:46am            183          0          2         44         98       73.0       71.3      29.35       71.3        530        147       1468      -0.62       0.00       0.60      0.000
3:47am            183          0          2         44         98       73.0       71.3      29.35       71.3        531        147       1469      -0.61       0.00       0.60      0.000
3:48am            183          0          2         44         98       72.8       71.3      29.35       71.3        530        147       1468      -0.60       0.00       0.60      0.000
3:49am            183          0          2         44         97       72.8       71.3      29.35       71.3        528        223       1466      -0.59       0.00       0.60      0.000
3:50am            183          0          2         44         97       72.8       71.4      29.36       71.4        526        223       1470      -0.48       0.00       0.60      0.000
3:51am            183          0          0         44         97       72.8       71.4      29.36       71.4        526        223       1470      -0.47       0.00       0.60      0.000
3:52am            183          0          0         44         97       72.8       71.4      29.36       71.4        525        223       1469      -0.46       0.00       0.60      0.000
3:53am            183          1          1         43         97       72.8       71.3      29.35       71.3        527        223       1465      -0.55       0.00       0.60      0.000
3:54am            183          1          1         44         97       72.8       71.4      29.35       71.4        527        223       1471      -0.45       0.00       0.60      0.000
3:55am            183          1          1         43         97       72.8       71.3      29.35       71.3        529        223       1467      -0.54       0.00       0.60      0.000
3:56am            183          0          1         43         97       72.8       71.4      29.35       71.4        530        223       1474      -0.43       0.00       0.60      0.000
3:57am            183          1          1         44         97       72.8       71.4      29.35       71.4        531        223       1476      -0.42       0.00       0.60      0.000
3:58am            183          0          1         44         97       72.8       71.4      29.35       71.4        530        223       1474      -0.41       0.00       0.60      0.000
3:59am            183          0          1         44         98       72.8       71.4      29.35       71.4        530        148       1474      -0.41       0.00       0.60      0.000
4:00am            183          0          1         44         98       72.8       71.4      29.35       71.4        530        148       1474      -0.40       0.00       0.60      0.000
4:01am            183          0          0         44         98       72.8       71.4      29.35       71.4        528        148       1472      -0.40       0.00       0.60      0.000
4:02am            183          0          1         44         98       72.8       71.5      29.35       71.5        527        148       1477      -0.29       0.00       0.60      0.000
4:03am            183          0          1         44         98       72.8       71.4      29.35       71.4        527        148       1471      -0.38       0.00       0.60      0.000
4:04am            183          0          1         44         97       72.8       71.5      29.35       71.5        528        223       1479      -0.28       0.00       0.60      0.000
4:05am            183          0          1         44         97       72.8       71.4      29.35       71.4        528        223       1472      -0.37       0.00       0.60      0.000
4:06am            183          0          0         44         97       72.8       71.5      29.35       71.5        529        223       1480      -0.27       0.00       0.60      0.000
4:07am            183          0          0         44         97       72.8       71.4      29.35       71.4        529        223       1473      -0.36       0.00       0.60      0.000
4:08am            183          0          0         44         97       72.8       71.4      29.35       71.4        529        223       1473      -0.36       0.00       0.60      0.000
4:09am            183          0          0         44         98       72.8       71.4      29.35       71.4        531        148       1476      -0.35       0.00       0.60      0.000
4:10am            183          0          0         45         97       72.8       71.4      29.35       71.4        530        223       1474      -0.35       0.00       0.60      0.000
4:11am            183          0          0         44         97       72.8       71.4      29.35       71.4        532        223       1477      -0.34       0.00       0.60      0.000
4:12am            183          0          0         44         97       72.8       71.4      29.35       71.4        527        223       1471      -0.33       0.00       0.60      0.000
4:13am            183          0          0         44         98       72.8       71.3      29.36       71.3        525        147       1462      -0.43       0.00       0.60      0.000
4:14am            183          0          0         44         97       72.8       71.3      29.36       71.3        524        223       1461      -0.42       0.00       0.60      0.000
4:15am            183          0          0         44         98       72.8       71.3      29.36       71.3        524        147       1461      -0.41       0.00       0.60      0.000
4:16am            183          0          0         44         98       72.8       71.3      29.36       71.3        524        147       1460      -0.41       0.00       0.60      0.000
4:17am            183          0          0         44         98       72.8       71.3      29.36       71.3        524        147       1460      -0.40       0.00       0.60      0.000
4:18am            183          0          0         44         98       72.8       71.3      29.36       71.3        524        147       1460      -0.39       0.00       0.60      0.000
4:19am            183          0          0         44         98       72.8       71.2      29.36       71.2        524        147       1454      -0.49       0.00       0.60      0.000
4:20am            183          0          0         44         98       72.8       71.2      29.36       71.2        524        147       1454      -0.48       0.00       0.60      0.000
4:21am            183          0          0         44         98       72.8       71.2      29.36       71.2        524        147       1454      -0.47       0.00       0.60      0.000
4:22am            183          0          0         44         98       72.8       71.2      29.36       71.2        524        147       1455      -0.46       0.00       0.60      0.000
4:23am            183          0          0         44         98       72.8       71.2      29.36       71.2        524        147       1454      -0.46       0.00       0.60      0.000
4:24am            183          1          1         44         98       73.0       71.2      29.36       71.2        524        147       1454      -0.45       0.00       0.60      0.000
4:25am            183          0          1         44         98       73.0       71.2      29.36       71.2        523        147       1453      -0.44       0.00       0.60      0.000
4:26am            183          0          0         44         98       73.0       71.2      29.36       71.2        524        147       1454      -0.43       0.00       0.60      0.000
4:27am            183          0          0         44         98       73.0       71.2      29.36       71.2        524        147       1454      -0.43       0.00       0.60      0.000
4:28am            183          0          0         44         98       73.0       71.2      29.36       71.2        523        147       1453      -0.42       0.00       0.60      0.000
4:29am            183          0          0         44         98       73.0       71.1      29.36       71.1        523        147       1446      -0.51       0.00       0.60      0.000
4:30am            183          0          0         44         98       73.0       71.1      29.36       71.1        522        147       1445      -0.50       0.00       0.60      0.000
4:31am            183          0          0         44         98       73.0       71.1      29.36       71.1        523        147       1446      -0.50       0.00       0.60      0.000
4:32am            183          0          0         44         98       73.0       71.0      29.36       71.0        524        147       1441      -0.59       0.00       0.60      0.000
4:33am            183          0          0         44         98       73.0       71.1      29.36       71.1        524        147       1447      -0.48       0.00       0.60      0.000
4:34am            183          0          0         44         98       73.0       71.1      29.36       71.1        524        147       1449      -0.47       0.00       0.60      0.000
4:35am            183          0          0         44         98       73.0       71.1      29.36       71.1        525        147       1450      -0.46       0.00       0.60      0.000
4:36am            183          0          0         44         98       73.0       71.0      29.36       71.0        526        147       1444      -0.56       0.00       0.60      0.000
4:37am            183          0          0         44         98       73.0       71.1      29.36       71.1        525        147       1450      -0.45       0.00       0.60      0.000
4:38am            183          0          0         44         98       73.0       71.0      29.36       71.0        524        147       1442      -0.54       0.00       0.60      0.000
4:39am            183          0          0         44         98       73.0       71.1      29.36       71.1        524        147       1449      -0.43       0.00       0.60      0.000
4:40am            183          0          0         44         98       73.0       71.1      29.36       71.1        526        147       1451      -0.43       0.00       0.60      0.000
4:41am            183          0          0         44         98       73.0       71.0      29.35       71.0        527        147       1446      -0.52       0.00       0.60      0.000
4:42am            183          0          0         44         98       73.0       71.0      29.35       71.0        528        147       1447      -0.51       0.00       0.60      0.000
4:43am            183          0          0         44         98       73.0       71.0      29.35       71.0        528        147       1447      -0.50       0.00       0.60      0.000
4:44am            183          0          0         44         98       73.0       71.0      29.35       71.0        528        147       1447      -0.49       0.00       0.60      0.000
4:45am            183          0          0         44         98       73.0       71.0      29.35       71.0        527        147       1446      -0.48       0.00       0.60      0.000
4:46am            183          0          0         44         98       73.0       71.0      29.35       71.0        527        147       1446      -0.48       0.00       0.60      0.000
4:47am            183          0          0         44         98       73.0       71.0      29.35       71.0        527        147       1446      -0.47       0.00       0.60      0.000
4:48am            183          0          0         44         98       73.0       71.0      29.35       71.0        527        147       1446      -0.46       0.00       0.60      0.000
4:49am            183          0          0         44         98       73.0       71.0      29.35       71.0        528        147       1447      -0.45       0.00       0.60      0.000
4:50am            183          0          0         44         98       73.0       71.0      29.35       71.0        530        147       1449      -0.45       0.00       0.60      0.000
4:51am            183          0          0         44         98       73.0       71.0      29.35       71.0        532        147       1451      -0.44       0.00       0.60      0.000
4:52am            183          0          0         44         98       72.8       71.0      29.35       71.0        533        147       1452      -0.43       0.00       0.60      0.000
4:53am            183          0          0         44         98       72.8       71.0      29.35       71.0        535        147       1455      -0.42       0.00       0.60      0.000
4:54am            183          0          0         44         98       72.8       71.0      29.35       71.0        535        147       1455      -0.42       0.00       0.60      0.000
4:55am            183          0          0         44         98       72.8       71.0      29.35       71.0        535        147       1455      -0.41       0.00       0.60      0.000
4:56am            183          0          0         44         98       72.8       71.0      29.35       71.0        536        147       1456      -0.40       0.00       0.60      0.000
4:57am            183          0          0         44         98       72.8       70.9      29.35       70.9        536        147       1449      -0.49       0.00       0.60      0.000
4:58am            183          0          0         44         98       72.8       70.9      29.34       70.9        536        147       1451      -0.49       0.00       0.60      0.000
4:59am            183          0          0         44         98       72.8       70.9      29.34       70.9        536        147       1451      -0.48       0.00       0.60      0.000
5:00am            183          0          0         44         98       72.8       70.9      29.34       70.9        536        147       1451      -0.47       0.00       0.60      0.000
5:01am            183          0          0         44         98       73.0       70.9      29.34       70.9        537        147       1452      -0.46       0.00       0.60      0.000
5:02am            183          0          0         44         98       72.8       70.9      29.34       70.9        537        147       1452      -0.45       0.00       0.60      0.000
5:03am            183          0          0         44         98       72.8       71.0      29.34       71.0        538        147       1459      -0.35       0.00       0.60      0.000
5:04am            183          0          0         44         98       72.8       70.9      29.34       70.9        538        147       1453      -0.44       0.00       0.60      0.000
5:05am            183          0          0         44         98       73.0       71.0      29.34       71.0        538        147       1459      -0.33       0.00       0.60      0.000
5:06am            183          0          1         44         98       73.0       70.9      29.34       70.9        538        147       1453      -0.43       0.00       0.60      0.000
5:07am            183          0          1         43         98       73.0       70.9      29.34       70.9        538        147       1453      -0.42       0.00       0.60      0.000
5:08am            183          0          1         44         98       73.0       70.9      29.34       70.9        537        147       1452      -0.41       0.00       0.60      0.000
5:09am            183          0          1         44         98       73.0       70.9      29.34       70.9        537        147       1452      -0.40       0.00       0.60      0.000
5:10am            183          0          1         44         98       73.0       70.8      29.34       70.8        537        147       1445      -0.50       0.00       0.60      0.000
5:11am            183          0          0         44         98       73.0       70.8      29.34       70.8        537        147       1445      -0.49       0.00       0.60      0.000
5:12am            183          0          0         44         98       73.0       70.8      29.34       70.8        537        147       1445      -0.48       0.00       0.60      0.000
5:13am            183          0          0         44         98       73.0       70.8      29.34       70.8        537        147       1445      -0.47       0.00       0.60      0.000
5:14am            183          0          0         44         98       73.0       70.8      29.34       70.8        537        147       1445      -0.46       0.00       0.60      0.000
5:15am            183          0          0         44         99       73.0       70.7      29.34       70.7        537         73       1439      -0.55       0.00       0.60      0.000
5:16am            183          0          0         44         99       73.0       70.7      29.34       70.7        537         73       1439      -0.55       0.00       0.49      0.000
5:17am            183          0          0         44         99       73.0       70.7      29.34       70.7        539         73       1441      -0.54       0.00       0.49      0.000
5:18am            183          0          0         44         99       73.0       70.7      29.34       70.7        540         73       1442      -0.53       0.00       0.49      0.000
5:19am            183          0          0         44         99       73.0       70.7      29.34       70.7        540         73       1442      -0.52       0.00       0.49      0.000
5:20am            183          0          0         44         99       73.0       70.7      29.34       70.7        539         73       1441      -0.51       0.00       0.49      0.000
5:21am            183          0          0         44         99       73.0       70.7      29.34       70.7        538         73       1440      -0.50       0.00       0.47      0.000
5:22am            183          0          0         44         99       73.0       70.7      29.34       70.7        539         73       1441      -0.49       0.00       0.47      0.000
5:23am            183          0          0         44         98       73.0       70.6      29.34       70.6        542        147       1438      -0.59       0.00       0.47      0.000
5:24am            183          0          0         44         98       73.0       70.6      29.34       70.6        543        147       1439      -0.58       0.00       0.47      0.000
5:25am            183          0          0         44         98       73.0       70.6      29.34       70.6        543        147       1439      -0.57       0.00       0.47      0.000
5:26am            183          0          0         44         98       73.1       70.6      29.34       70.6        544        147       1440      -0.56       0.00       0.47      0.000
5:27am            183          0          0         44         98       73.1       70.5      29.34       70.5        544        147       1434      -0.65       0.00       0.47      0.000
5:28am            183          0          0         44         98       73.1       70.5      29.34       70.5        544        147       1434      -0.64       0.00       0.47      0.000
5:29am            183          0          0         44         98       73.1       70.5      29.34       70.5        544        147       1434      -0.63       0.00       0.47      0.000
5:30am            183          0          0         44         99       73.1       70.5      29.34       70.5        543         73       1433      -0.62       0.00       0.47      0.000
5:31am            183          0          0         44         99       73.1       70.5      29.34       70.5        543         73       1433      -0.61       0.00       0.45      0.000
5:32am            183          0          0         44         99       73.1       70.5      29.34       70.5        544         73       1434      -0.60       0.00       0.45      0.000
5:33am            183          0          0         44         99       73.1       70.5      29.34       70.5        544         73       1434      -0.59       0.00       0.45      0.000
5:34am            183          0          0         44         99       73.1       70.6      29.33       70.6        546         73       1443      -0.48       0.00       0.45      0.000
5:35am            183          0          0         44         99       73.1       70.6      29.33       70.6        547         73       1444      -0.47       0.00       0.45      0.000
5:36am            183          0          0         44         99       73.1       70.5      29.33       70.5        546         73       1436      -0.56       0.00       0.43      0.000
5:37am            183          0          0         44         99       73.1       70.5      29.33       70.5        547         73       1437      -0.55       0.00       0.43      0.000
5:38am            183          0          0         44         99       73.1       70.5      29.33       70.5        546         73       1436      -0.54       0.00       0.43      0.000
5:39am            183          0          0         44         99       73.1       70.4      29.33       70.4        547         73       1431      -0.63       0.00       0.43      0.000
5:40am            183          0          0         44         99       73.1       70.5      29.33       70.5        547         73       1437      -0.52       0.00       0.43      0.000
5:41am            183          0          0         44         99       73.1       70.5      29.34       70.5        545         73       1435      -0.51       0.00       0.42      0.000
5:42am            183          0          0         44         99       73.1       70.5      29.34       70.5        543         73       1433      -0.50       0.00       0.42      0.000
5:43am            183          0          0         44         99       73.1       70.4      29.34       70.4        542         73       1425      -0.59       0.00       0.42      0.000
5:44am            183          0          0         44         99       73.1       70.4      29.34       70.4        541         73       1424      -0.59       0.00       0.42      0.000
5:45am            183          0          0         44         99       73.1       70.5      29.34       70.5        541         73       1431      -0.48       0.00       0.42      0.000
5:46am            183          0          0         44         99       73.1       70.5      29.34       70.5        541         73       1431      -0.47       0.00       0.41      0.000
5:47am            183          0          0         44         99       73.1       70.5      29.34       70.5        543         73       1433      -0.46       0.00       0.41      0.000
5:48am            183          0          0         44         99       73.1       70.5      29.34       70.5        545         73       1435      -0.45       0.00       0.41      0.000
5:49am            183          0          0         44         99       73.1       70.5      29.34       70.5        544         73       1434      -0.45       0.00       0.41      0.000
5:50am            183          0          0         44         99       73.1       70.5      29.34       70.5        544         73       1434      -0.44       0.00       0.41      0.000
5:51am            183          0          0         44         99       73.0       70.5      29.34       70.5        542         73       1432      -0.43       0.00       0.40      0.000
5:52am            183          0          0         44         99       73.0       70.5      29.34       70.5        539         73       1428      -0.42       0.00       0.40      0.000
5:53am            183          0          0         44         99       73.0       70.4      29.34       70.4        539         73       1422      -0.51       0.00       0.40      0.000
5:54am            183          0          0         44         99       73.0       70.4      29.34       70.4        539         73       1422      -0.51       0.00       0.40      0.000
5:55am            183          0          0         44         99       73.0       70.4      29.34       70.4        539         73       1422      -0.50       0.00       0.40      0.000
5:56am            183          0          0         44         99       73.0       70.4      29.34       70.4        538         73       1421      -0.49       0.00       0.40      0.000
5:57am            183          0          0         44         99       73.0       70.4      29.34       70.4        537         73       1420      -0.48       0.00       0.40      0.000
5:58am            183          0          0         44         99       73.0       70.3      29.35       70.3        536         73       1411      -0.57       0.00       0.40      0.000
5:59am            183          0          0         44         99       73.0       70.3      29.35       70.3        533         73       1408      -0.56       0.00       0.40      0.000
6:00am            183          0          0         44         99       73.0       70.4      29.35       70.4        530         73       1411      -0.46       0.00       0.40      0.000
6:01am            183          0          0         44         99       73.0       70.3      29.35       70.3        530         73       1404      -0.55       0.00       0.40      0.000
6:02am            183          0          0         44         99       73.0       70.4      29.35       70.4        531         73       1412      -0.44       0.00       0.40      0.000
6:03am            183          0          0         44         99       73.0       70.4      29.35       70.4        534         73       1415      -0.43       0.00       0.40      0.000
6:04am            183          0          0         44         99       73.0       70.3      29.35       70.3        535         73       1410      -0.52       0.00       0.40      0.000
6:05am            183          0          0         44         99       73.0       70.3      29.35       70.3        536         73       1411      -0.52       0.00       0.40      0.000
6:06am            183          0          0         44         99       73.0       70.3      29.35       70.3        535         73       1410      -0.51       0.00       0.39      0.000
6:07am            183          0          0         44         99       73.1       70.3      29.35       70.3        534         73       1409      -0.50       0.00       0.39      0.000
6:08am            183          0          0         44         99       73.1       70.3      29.35       70.3        533         73       1408      -0.49       0.00       0.39      0.000
6:09am            183          0          0         44         99       73.1       70.3      29.35       70.3        533         73       1408      -0.48       0.00       0.39      0.000
6:10am            183          0          0         44         99       73.1       70.2      29.35       70.2        534         72       1402      -0.57       0.00       0.39      0.000
6:11am            183          0          0         44         99       73.1       70.3      29.35       70.3        534         73       1409      -0.46       0.00       0.39      0.000
6:12am            183          0          0         44         99       73.1       70.2      29.35       70.2        532         72       1400      -0.56       0.00       0.39      0.000
6:13am            183          0          0         44         99       73.1       70.2      29.35       70.2        531         72       1399      -0.55       0.00       0.39      0.000
6:14am            183          0          0         44         99       73.1       70.2      29.35       70.2        531         72       1399      -0.54       0.00       0.39      0.000
6:15am            183          0          0         44         99       73.1       70.1      29.35       70.1        532         72       1394      -0.63       0.00       0.39      0.000
6:16am            183          0          0         44         99       73.1       70.2      29.35       70.2        532         72       1400      -0.52       0.00       0.39      0.000
6:17am            183          0          0         44         99       73.1       70.1      29.35       70.1        531         72       1393      -0.61       0.00       0.39      0.000
6:18am            183          0          0         44         99       73.1       70.1      29.35       70.1        530         72       1392      -0.60       0.00       0.39      0.000
6:19am            183          0          0         44         99       73.1       70.1      29.35       70.1        529         72       1390      -0.59       0.00       0.39      0.000
6:20am            183          0          0         44         99       73.3       70.0      29.35       70.0        529         72       1384      -0.68       0.00       0.39      0.000
6:21am            183          0          0         44         99       73.1       70.0      29.35       70.0        528         72       1383      -0.67       0.00       0.39      0.000
6:22am            183          0          0         44         99       73.1       70.0      29.35       70.0        528         72       1383      -0.66       0.00       0.39      0.000
6:23am            183          0          0         44         99       73.1       70.0      29.35       70.0        528         72       1383      -0.65       0.00       0.39      0.000
6:24am            183          0          0         44         99       73.1       70.0      29.35       70.0        528         72       1383      -0.64       0.00       0.39      0.000
6:25am            183          0          0         44         99       73.1       70.0      29.35       70.0        528         72       1383      -0.63       0.00       0.39      0.000
6:26am            183          0          0         44         99       73.3       70.0      29.35       70.0        530         72       1385      -0.61       0.00       0.39      0.000
6:27am            183          0          0         44         99       73.3       69.9      29.35       69.9        532         72       1381      -0.70       0.00       0.39      0.000
6:28am            183          0          1         44         99       73.3       69.9      29.35       69.9        532         72       1381      -0.69       0.00       0.39      0.000
6:29am            183          0          1         44         99       73.3       69.8      29.34       69.8        536         72       1380      -0.78       0.00       0.39      0.000
6:30am            183          0          1         44         99       73.3       69.8      29.34       69.8        537         72       1381      -0.77       0.00       0.39      0.000
6:31am            183          0          1         44         99       73.3       69.8      29.34       69.8        537         72       1381      -0.76       0.00       0.39      0.000
6:32am            183          0          1         44         99       73.3       69.8      29.34       69.8        536         72       1380      -0.74       0.00       0.39      0.000
6:33am            183          0          1         44         99       73.3       69.7      29.34       69.7        536         72       1374      -0.83       0.00       0.39      0.000
6:34am            183          0          1         44         99       73.3       69.7      29.35       69.7        535         72       1372      -0.82       0.00       0.39      0.000
6:35am            183          1          1         44         99       73.3       69.7      29.35       69.7        534         72       1371      -0.80       0.00       0.39      0.000
6:36am            183          0          1         44         99       73.3       69.7      29.35       69.7        535         72       1372      -0.79       0.00       0.39      0.000
6:37am            183          0          1         44         99       73.3       69.7      29.34       69.7        536         72       1374      -0.78       0.00       0.39      0.000
6:38am            183          0          1         44         99       73.3       69.7      29.34       69.7        538         72       1376      -0.76       0.00       0.39      0.000
6:39am            183          0          1         44         99       73.3       69.7      29.34       69.7        538         72       1376      -0.75       0.00       0.39      0.000
6:40am            183          1          1         44         99       73.3       69.7      29.35       69.7        536         72       1373      -0.74       0.00       0.39      0.000
6:41am            183          1          2         44         99       73.3       69.7      29.35       69.7        533         72       1369      -0.73       0.00       0.39      0.000
6:42am            183          1          2         44         99       73.5       69.7      29.35       69.7        533         72       1369      -0.71       0.00       0.39      0.000
6:43am            183          0          2         44         99       73.5       69.7      29.35       69.7        535         72       1372      -0.70       0.00       0.39      0.000
6:44am            183          0          2         44         99       73.5       69.7      29.34       69.7        537         72       1375      -0.69       0.00       0.39      0.000
6:45am            183          1          2         44         99       73.5       69.7      29.34       69.7        538         72       1376      -0.68       0.00       0.39      0.000
6:46am            183          2          2         44         99       73.5       69.7      29.34       69.7        539         72       1377      -0.67       0.00       0.39      0.000
6:47am            183          2          3         44         99       73.5       69.6      29.34       69.6        541         72       1373      -0.76       0.00       0.39      0.000
6:48am            183          2          3         44         99       73.5       69.6      29.34       69.6        544         72       1377      -0.74       0.00       0.39      0.000
6:49am            183          0          3         44         99       73.5       69.6      29.33       69.6        546         72       1379      -0.73       0.00       0.39      0.000
6:50am            183          0          3         44         99       73.5       69.6      29.33       69.6        547         72       1380      -0.72       0.00       0.39      0.000
6:51am            183          0          0         44         99       73.5       69.5      29.33       69.5        546         72       1372      -0.81       0.00       0.39      0.000
6:52am            183          0          0         44         99       73.5       69.5      29.34       69.5        545         72       1371      -0.79       0.00       0.39      0.000
6:53am            183          0          0         44         99       73.5       69.5      29.34       69.5        543         72       1369      -0.78       0.00       0.39      0.000
6:54am            183          0          0         44         99       73.5       69.5      29.34       69.5        542         72       1368      -0.77       0.00       0.39      0.000
6:55am            183          0          0         44         99       73.5       69.4      29.34       69.4        540         72       1359      -0.85       0.00       0.39      0.000
6:56am            183          0          1         44         99       73.5       69.4      29.34       69.4        539         72       1358      -0.84       0.00       0.33      0.000
6:57am            183          1          2         44         99       73.5       69.4      29.34       69.4        538         72       1357      -0.83       0.00       0.33      0.000
6:58am            183          1          2         44         99       73.6       69.4      29.34       69.4        538         72       1357      -0.81       0.00       0.33      0.000
6:59am            183          1          2         44         99       73.6       69.5      29.34       69.5        537         72       1362      -0.70       0.00       0.33      0.000
7:00am            183          0          2         44         99       73.6       69.5      29.34       69.5        536         72       1361      -0.69       0.00       0.33      0.000
7:01am            183          1          1         44         99       73.6       69.5      29.34       69.5        536         72       1361      -0.68       0.00       0.14      0.000
7:02am            183          0          2         44         99       73.6       69.5      29.34       69.5        536         72       1361      -0.67       0.00       0.14      0.000
7:03am            183          0          2         44         99       73.6       69.5      29.35       69.5        535         72       1359      -0.66       0.00       0.14      0.000
7:04am            183          1          2         44         99       73.6       69.5      29.35       69.5        535         72       1359      -0.64       0.00       0.14      0.000
7:05am            183          1          2         44         99       73.6       69.5      29.35       69.5        533         72       1357      -0.63       0.00       0.14      0.000
7:06am            183          0          1         44         99       73.6       69.5      29.35       69.5        532         72       1355      -0.62       0.00       0.05      0.000
7:07am            183          0          1         44         99       73.6       69.5      29.35       69.5        532         72       1355      -0.61       0.00       0.05      0.000
7:08am            183          0          1         44         99       73.6       69.6      29.35       69.6        530         72       1360      -0.50       0.00       0.05      0.000
7:09am            183          0          1         44         99       73.6       69.5      29.35       69.5        528         72       1351      -0.60       0.00       0.05      0.000
7:10am            183          0          1         44         99       73.6       69.6      29.36       69.6        526         72       1355      -0.49       0.00       0.05      0.000
7:11am            183          0          0         44         99       73.8       69.6      29.36       69.6        525         72       1354      -0.48       0.00       0.05      0.000
7:12am            184          0          3         44         99       73.8       69.6      29.36       69.6        525         72       1354      -0.47       0.00       0.05      0.000
7:13am            184          0          3         44         99       73.8       69.6      29.36       69.6        524         72       1353      -0.46       0.00       0.05      0.000
7:14am            184          0          3         44         99       73.8       69.5      29.36       69.5        524         72       1346      -0.55       0.00       0.05      0.000
7:15am            184          0          3         44         99       73.8       69.5      29.36       69.5        524         72       1346      -0.54       0.00       0.05      0.000
7:16am            184          0          0         44         99       73.8       69.5      29.36       69.5        524         72       1346      -0.54       0.00       0.04      0.000
7:17am            184          0          0         44         99       73.8       69.4      29.36       69.4        524         72       1340      -0.63       0.00       0.04      0.000
7:18am            184          0          0         44         99       73.8       69.5      29.36       69.5        524         72       1346      -0.52       0.00       0.04      0.000
7:19am            184          0          0         44         99       73.8       69.5      29.36       69.5        524         72       1346      -0.51       0.00       0.04      0.000
7:20am            184          0          0         44         99       73.8       69.5      29.36       69.5        524         72       1346      -0.50       0.00       0.04      0.000
7:21am            184          0          0         44         99       73.8       69.5      29.36       69.5        524         72       1346      -0.49       0.00       0.04      0.000
7:22am            184          0          0         44         99       73.8       69.5      29.36       69.5        524         72       1346      -0.48       0.00       0.04      0.000
7:23am            184          2          2         44         99       73.8       69.5      29.36       69.5        524         72       1346      -0.48       0.00       0.04      0.000
7:24am            184          1          2         45         99       73.8       69.5      29.36       69.5        526         72       1349      -0.47       0.00       0.04      0.000
7:25am            184          0          2         45         99       74.0       69.5      29.36       69.5        525         72       1348      -0.46       0.00       0.04      0.000
7:26am            184          0          1         45         99       74.0       69.6      29.36       69.6        526         72       1355      -0.36       0.00       0.04      0.000
7:27am            184          1          1         45         99       74.0       69.6      29.36       69.6        526         72       1355      -0.35       0.00       0.04      0.000
7:28am            184          1          1         44         99       74.0       69.6      29.36       69.6        525         72       1354      -0.34       0.00       0.04      0.000
7:29am            184          1          1         44         99       74.0       69.6      29.36       69.6        525         72       1354      -0.34       0.00       0.04      0.000
7:30am            184          1          2         45         99       74.0       69.6      29.36       69.6        525         72       1354      -0.33       0.00       0.04      0.000
7:31am            184          1          2         45         99       74.0       69.7      29.36       69.7        524         72       1359      -0.23       0.00       0.04      0.000
7:32am            184          0          2         45         99       74.0       69.7      29.36       69.7        524         72       1359      -0.22       0.00       0.04      0.000
7:33am            184          2          3         44         99       74.0       69.6      29.36       69.6        524         72       1353      -0.32       0.00       0.04      0.000
7:34am            184          0          3         44         99       74.0       69.7      29.36       69.7        524         72       1359      -0.21       0.00       0.04      0.000
7:35am            184          0          3         45         99       74.0       69.7      29.36       69.7        524         72       1359      -0.21       0.00       0.04      0.000
7:36am            184          0          2         45         99       74.0       69.7      29.36       69.7        524         72       1358      -0.21       0.00       0.04      0.000
7:37am            184          1          2         45         99       74.0       69.7      29.36       69.7        524         72       1358      -0.20       0.00       0.04      0.000
7:38am            184          2          3         45         98       74.0       69.7      29.36       69.7        524        147       1358      -0.20       0.00       0.04      0.000
7:39am            184          0          3         45         99       74.0       69.8      29.36       69.8        524         72       1364      -0.10       0.00       0.04      0.000
7:40am            184          1          3         45         99       74.2       69.9      29.36       69.9        524         72       1371       0.00       0.00       0.04      0.000
7:41am            184          1          1         45         99       74.2       69.9      29.36       69.9        524         72       1371       0.00       0.00       0.04      0.000
7:42am            184          1          1         45         99       74.2       70.0      29.36       70.0        523         72       1376       0.10       0.00       0.04      0.000
7:43am            184          0          1         45         99       74.2       70.0      29.36       70.0        522         72       1375       0.10       0.00       0.04      0.000
7:44am            184          0          1         45         99       74.2       70.1      29.36       70.1        522         72       1381       0.20       0.00       0.04      0.000
7:45am            184          1          1         45         99       74.2       70.1      29.36       70.1        522         72       1381       0.19       0.00       0.04      0.000
7:46am            184          0          1         45         99       74.2       70.2      29.36       70.2        521         72       1387       0.29       0.00       0.04      0.000
7:47am            184          1          1         45         99       74.2       70.2      29.36       70.2        521         72       1387       0.28       0.00       0.04      0.000
7:48am            184          1          2         45         99       74.2       70.3      29.36       70.3        520         73       1392       0.38       0.00       0.04      0.000
7:49am            184          0          2         45         98       74.2       70.3      29.36       70.3        520        147       1392       0.37       0.00       0.04      0.000
7:50am            184          1          2         45         98       74.2       70.3      29.36       70.3        520        147       1392       0.36       0.00       0.04      0.000
7:51am            184          0          1         44         98       74.2       70.4      29.36       70.4        521        147       1399       0.46       0.00       0.04      0.000
7:52am            184          1          3         45         98       74.2       70.4      29.36       70.4        521        147       1399       0.45       0.00       0.04      0.000
7:53am            184          0          3         45         98       74.3       70.5      29.36       70.5        522        147       1407       0.54       0.00       0.04      0.000
7:54am            183          2          4         45         98       74.3       70.6      29.36       70.6        522        147       1413       0.63       0.00       0.04      0.000
7:55am            349          3          4         46         98       74.3       70.6      29.36       70.6        522        147       1413       0.62       0.00       0.04      0.000
7:56am            233          2          3         45         98       74.3       70.6      29.36       70.6        520        147       1411       0.61       0.00       0.04      0.000
7:57am            233          0          3         45         98       74.3       70.7      29.36       70.7        519        147       1416       0.70       0.00       0.04      0.000
7:58am            233          0          3         45         98       74.3       70.8      29.36       70.8        520        147       1424       0.79       0.00       0.04      0.000
7:59am            233          0          3         45         98       74.3       70.9      29.36       70.9        519        147       1429       0.87       0.00       0.04      0.000
8:00am            355          2          5         45         98       74.3       71.0      29.36       71.0        521        147       1438       0.96       0.00       0.04      0.000
8:01am            350          3          3         45         97       74.3       71.1      29.36       71.1        520        223       1443       1.04       0.00       0.04      0.000
8:02am            271          1          3         45         97       74.3       71.1      29.36       71.1        519        223       1442       1.02       0.00       0.04      0.000
8:03am            271          1          3         45         97       74.3       71.2      29.36       71.2        519        223       1448       1.11       0.00       0.04      0.000
8:04am            271          1          3         45         97       74.3       71.2      29.36       71.2        519        223       1448       1.09       0.00       0.04      0.000
8:05am            271          0          3         45         97       74.3       71.3      29.36       71.3        519        223       1455       1.17       0.00       0.04      0.000
8:06am            331          0          0         45         97       74.3       71.3      29.36       71.3        519        223       1455       1.15       0.00       0.04      0.000
8:07am            331          0          0         45         97       74.3       71.5      29.36       71.5        518        223       1466       1.33       0.00       0.04      0.000
8:08am            212          0          0         45         96       74.3       71.5      29.36       71.5        518        299       1466       1.31       0.00       0.04      0.000
8:09am            239          0          0         45         96       74.5       71.6      29.37       71.6        517        299       1471       1.38       0.00       0.04      0.000
8:10am            274          0          0         45         96       74.5       71.6      29.37       71.6        517        299       1471       1.36       0.00       0.04      0.000
8:11am            349          0          0         45         96       74.5       71.6      29.36       71.6        518        299       1472       1.34       0.00       0.04      0.000
8:12am            314          0          0         45         96       74.5       71.7      29.37       71.7        517        299       1478       1.41       0.00       0.04      0.000
8:13am            314          0          0         45         96       74.5       71.7      29.36       71.7        518        299       1479       1.39       0.00       0.04      0.000
8:14am            356          1          3         45         96       74.5       71.7      29.37       71.7        515        299       1475       1.37       0.00       0.04      0.000
8:15am            280          0          3         45         95       74.5       71.7      29.37       71.7        516        376       1477       1.34       0.00       0.04      0.000
8:16am            216          2          2         45         95       74.5       71.8      29.37       71.8        515        376       1482       1.42       0.00       0.04      0.000
8:17am            252          1          3         45         95       74.5       71.8      29.37       71.8        513        376       1480       1.40       0.00       0.04      0.000
8:18am            252          0          3         45         95       74.5       71.9      29.37       71.9        512        376       1485       1.48       0.00       0.04      0.000
8:19am            300          2          3         45         95       74.5       71.9      29.37       71.9        512        376       1485       1.45       0.00       0.04      0.000
8:20am            333          2          3         45         95       74.5       72.0      29.37       72.0        511        377       1489       1.53       0.00       0.04      0.000
8:21am            333          1          2         45         95       74.5       72.0      29.37       72.0        512        377       1490       1.50       0.00       0.04      0.000
8:22am            237          4          4         45         95       74.5       72.1      29.37       72.1        512        377       1496       1.57       0.00       0.04      0.000
8:23am            320          1          4         45         95       74.5       72.1      29.37       72.1        512        377       1496       1.55       0.00       0.04      0.000
8:24am            169          3          4         45         95       74.5       72.1      29.37       72.1        513        377       1499       1.52       0.00       0.04      0.000
8:25am            310          3          4         45         95       74.7       72.1      29.37       72.1        513        377       1499       1.50       0.00       0.04      0.000
8:26am            267          2          3         45         95       74.7       72.2      29.37       72.2        512        377       1504       1.57       0.00       0.04      0.000
8:27am            337          2          3         45         95       74.7       72.3      29.37       72.3        511        377       1508       1.64       0.00       0.04      0.000
8:28am            283          4          4         45         95       74.7       72.4      29.37       72.4        511        377       1514       1.72       0.00       0.04      0.000
8:29am            282          0          4         45         94       74.7       72.4      29.37       72.4        511        455       1514       1.69       0.00       0.04      0.000
8:30am            283          0          4         45         94       74.7       72.4      29.37       72.4        511        455       1514       1.66       0.00       0.04      0.000
8:31am            260          4          4         45         94       74.7       72.6      29.37       72.6        512        455       1528       1.83       0.00       0.04      0.000
8:32am            264          1          4         45         94       74.7       72.6      29.37       72.6        511        455       1527       1.80       0.00       0.04      0.000
8:33am            175          4          7         45         94       74.7       72.7      29.37       72.7        512        456       1536       1.87       0.00       0.04      0.000
8:34am             81          4          7         45         94       74.7       72.8      29.37       72.8        512        456       1542       1.94       0.00       0.04      0.000
8:35am            300          0          7         45         93       74.7       73.0      29.37       73.0        515        535       1558       2.10       0.00       0.04      0.000
8:36am            300          2          3         45         93       74.7       73.1      29.37       73.1        517        535       1567       2.17       0.00       0.04      0.000
8:37am            300          0          3         45         93       74.7       73.1      29.37       73.1        517        535       1567       2.13       0.00       0.04      0.000
8:38am            316          2          3         45         93       74.7       73.2      29.36       73.2        519        535       1575       2.20       0.00       0.04      0.000
8:39am            356          0          3         45         93       74.7       73.3      29.37       73.3        517        536       1579       2.26       0.00       0.04      0.000
8:40am            356          1          3         45         92       74.9       73.3      29.36       73.3        518        615       1580       2.22       0.00       0.04      0.000
8:41am            286          2          2         45         92       74.9       73.4      29.36       73.4        519        615       1588       2.29       0.00       0.04      0.000
8:42am            135          1          6         45         92       74.9       73.5      29.36       73.5        521        616       1597       2.35       0.00       0.04      0.000
8:43am            135          2          6         45         91       74.9       73.6      29.36       73.6        521        696       1603       2.41       0.00       0.04      0.000
8:44am            300          1          6         45         92       74.9       73.7      29.36       73.7        522        616       1610       2.46       0.00       0.04      0.000
8:45am            329          4          6         45         91       74.9       73.9      29.36       73.9        522        697       1623       2.62       0.00       0.04      0.000
8:46am            328          2          4         45         91       74.9       74.0      29.36       74.0        522        697       1629       2.68       0.00       0.04      0.000
8:47am            334          2          4         45         90       74.9       74.1      29.36       74.1        523        779       1637       2.73       0.00       0.04      0.000
8:48am            334          0          4         45         90       74.9       74.3      29.36       74.3        522        780       1648       2.89       0.00       0.04      0.000
8:49am            264          3          4         45         90       74.9       74.4      29.36       74.4        523        780       1656       2.94       0.00       0.04      0.000
8:50am            259          1          4         45         90       74.9       74.5      29.36       74.5        523        780       1662       2.99       0.00       0.04      0.000
8:51am            350          3          4         45         90       74.9       74.6      29.36       74.6        522        781       1667       3.04       0.00       0.04      0.000
8:52am            349          1          4         45         90       74.9       74.6      29.36       74.6        522        781       1667       2.99       0.00       0.04      0.000
8:53am             43          5          6         45         89       74.9       74.6      29.36       74.6        522        863       1667       2.94       0.00       0.04      0.000
8:54am            353          2          6         45         89       74.9       74.6      29.36       74.6        522        863       1667       2.89       0.00       0.04      0.000
8:55am             42          2          6         45         89       74.9       74.8      29.36       74.8        521        864       1679       3.04       0.00       0.04      0.000
8:56am             25          0          2         45         89       74.9       74.8      29.36       74.8        522        864       1680       2.99       0.00       0.04      0.000
8:57am            315          0          2         45         89       75.0       74.8      29.36       74.8        522        864       1680       2.94       0.00       0.04      0.000
8:58am            203          0          2         45         88       75.0       74.9      29.36       74.9        522        947       1686       2.99       0.00       0.04      0.000
8:59am            118          0          2         45         89       75.0       75.0      29.36       75.0        521        864       1691       3.04       0.00       0.04      0.000
9:00am            197          0          2         45         89       75.0       75.2      29.36       75.2        522        865       1705       3.19       0.00       0.04      0.000
9:01am            130          2          2         45         88       75.0       75.3      29.36       75.3        522        949       1711       3.23       0.00       0.04      0.000
9:02am            300          0          3         45         88       75.0       75.3      29.36       75.3        522        949       1711       3.18       0.00       0.04      0.000
9:03am            170          2          3         45         88       75.0       75.4      29.36       75.4        523        949       1719       3.23       0.00       0.04      0.000
9:04am            347          4          4         45         87       75.0       75.5      29.36       75.5        521       1034       1723       3.27       0.00       0.04      0.000
9:05am             78          0          4         45         87       75.0       75.6      29.36       75.6        524       1034       1733       3.32       0.00       0.04      0.000
9:06am            316          0          3         45         87       75.0       75.7      29.36       75.7        523       1035       1738       3.36       0.00       0.04      0.000
9:07am            315          0          3         45         88       75.0       75.8      29.36       75.8        524        951       1745       3.40       0.00       0.04      0.000
9:08am            319          1          3         45         87       75.0       75.9      29.36       75.9        524       1036       1752       3.45       0.00       0.04      0.000
9:09am            319          0          3         45         88       75.0       76.0      29.36       76.0        524        952       1758       3.49       0.00       0.04      0.000
9:10am            257          3          5         45         88       75.0       76.0      29.36       76.0        524        952       1758       3.43       0.00       0.04      0.000
9:11am            260          0          3         45         86       75.0       76.0      29.36       76.0        524       1121       1758       3.38       0.00       0.04      0.000
9:12am              2          3          3         45         86       75.0       76.1      29.36       76.1        523       1122       1763       3.42       0.00       0.04      0.000
9:13am             80          2          7         45         86       74.9       76.1      29.36       76.1        522       1122       1762       3.36       0.00       0.04      0.000
9:14am             80          0          7         45         85       74.9       76.1      29.36       76.1        522       1208       1762       3.31       0.00       0.04      0.000
9:15am             80          0          7         45         85       74.9       76.3      29.36       76.3        523       1209       1776       3.45       0.00       0.04      0.000
9:16am            229          1          4         45         85       74.9       76.4      29.36       76.4        523       1210       1782       3.49       0.00       0.04      0.000
9:17am            229          0          4         45         85       74.9       76.6      29.36       76.6        523       1211       1795       3.63       0.00       0.04      0.000
9:18am            229          0          4         45         85       74.9       76.7      29.36       76.7        523       1211       1801       3.67       0.00       0.04      0.000
9:19am            280          0          4         45         84       74.9       76.7      29.36       76.7        523       1299       1801       3.61       0.00       0.04      0.000
9:20am            280          0          4         45         85       74.9       76.9      29.36       76.9        522       1212       1812       3.75       0.00       0.04      0.000
9:21am            160          4          6         45         85       74.9       76.9      29.36       76.9        524       1212       1815       3.69       0.00       0.04      0.000
9:22am            162          0          6         45         85       74.9       77.1      29.36       77.1        524       1213       1827       3.82       0.00       0.04      0.000
9:23am             10          3          6         45         85       74.9       77.2      29.36       77.2        524       1214       1833       3.86       0.00       0.04      0.000
9:24am             80          3          6         45         84       74.9       77.3      29.36       77.3        524       1302       1840       3.90       0.00       0.04      0.000
9:25am             80          0          6         45         85       74.9       77.3      29.36       77.3        524       1214       1840       3.83       0.00       0.04      0.000
9:26am             80          1          1         45         84       74.9       77.3      29.36       77.3        524       1302       1841       3.77       0.00       0.04      0.000
9:27am             73          1          4         45         84       74.9       77.3      29.36       77.3        524       1302       1841       3.71       0.00       0.04      0.000
9:28am            323          1          4         45         84       74.9       77.4      29.36       77.4        526       1302       1849       3.74       0.00       0.04      0.000
9:29am            345          3          4         45         83       74.9       77.4      29.36       77.4        525       1391       1848       3.68       0.00       0.04      0.000
9:30am            345          0          4         45         84       74.9       77.4      29.36       77.4        525       1302       1848       3.62       0.00       0.04      0.000
9:31am            231          0          3         45         84       74.9       77.4      29.36       77.4        524       1302       1847       3.56       0.00       0.04      0.000
9:32am             43          0          3         45         84       74.9       77.4      29.36       77.4        524       1302       1847       3.50       0.00       0.04      0.000
9:33am             76          1          3         45         84       74.9       77.5      29.36       77.5        524       1303       1853       3.54       0.00       0.04      0.000
9:34am             77          1          3         45         83       74.9       77.5      29.36       77.5        524       1391       1853       3.49       0.00       0.04      0.000
9:35am             77          0          3         45         83       74.9       77.5      29.36       77.5        524       1391       1852       3.43       0.00       0.04      0.000
9:36am             80          0          3         45         84       74.9       77.6      29.36       77.6        525       1303       1861       3.47       0.00       0.04      0.000
9:37am             80          1          3         45         84       74.9       77.7      29.36       77.7        525       1304       1867       3.52       0.00       0.04      0.000
9:38am             69          4          9         45         84       74.9       77.7      29.36       77.7        525       1304       1867       3.45       0.00       0.04      0.000
9:39am             23          0          9         45         83       74.9       77.7      29.36       77.7        525       1393       1867       3.40       0.00       0.04      0.000
9:40am             23          0          9         45         83       74.9       77.7      29.36       77.7        525       1393       1867       3.34       0.00       0.04      0.000
9:41am            343          2          4         45         83       74.9       77.8      29.36       77.8        525       1393       1873       3.38       0.00       0.04      0.000
9:42am             19          2          4         45         84       74.9       77.9      29.36       77.9        525       1305       1880       3.43       0.00       0.04      0.000
9:43am            147          4          4         45         84       74.9       77.9      29.36       77.9        525       1305       1880       3.37       0.00       0.04      0.000
9:44am             95          1          4         45         83       74.9       77.9      29.36       77.9        526       1394       1881       3.32       0.00       0.04      0.000
9:45am             95          2          4         45         84       74.9       77.9      29.36       77.9        526       1305       1881       3.26       0.00       0.04      0.000
9:46am             95          2          2         45         84       74.9       78.0      29.36       78.0        526       1306       1887       3.31       0.00       0.04      0.000
9:47am             80          3          3         45         84       74.9       78.0      29.36       78.0        525       1306       1886       3.25       0.00       0.04      0.000
9:48am            358          2          4         45         82       74.9       78.0      29.36       78.0        526       1484       1887       3.20       0.00       0.04      0.000
9:49am            358          2          4         45         83       74.9       78.1      29.36       78.1        525       1395       1892       3.24       0.00       0.04      0.000
9:50am            331          3          4         45         83       74.9       78.2      29.36       78.2        526       1395       1900       3.29       0.00       0.04      0.000
9:51am            347          2          3         45         83       74.9       78.2      29.36       78.2        525       1395       1898       3.23       0.00       0.04      0.000
9:52am            177          2          3         45         84       74.9       78.2      29.36       78.2        525       1307       1898       3.18       0.00       0.04      0.000
9:53am            174          1          3         45         84       74.9       78.3      29.36       78.3        525       1307       1905       3.23       0.00       0.04      0.000
9:54am            199          2          3         45         84       74.9       78.4      29.36       78.4        525       1308       1911       3.27       0.00       0.04      0.000
9:55am            344          3          3         45         83       74.9       78.4      29.36       78.4        525       1397       1911       3.22       0.00       0.04      0.000
9:56am            305          2          4         45         83       74.9       78.4      29.36       78.4        525       1397       1911       3.17       0.00       0.04      0.000
9:57am            341          0          4         45         84       74.9       78.5      29.36       78.5        525       1308       1917       3.21       0.00       0.04      0.000
9:58am            341          0          4         45         84       74.7       78.5      29.36       78.5        525       1308       1917       3.16       0.00       0.04      0.000
9:59am            341          1          4         45         84       74.7       78.5      29.36       78.5        524       1308       1916       3.11       0.00       0.04      0.000
10:00am           341          0          4         45         84       74.7       78.6      29.36       78.6        524       1309       1921       3.16       0.00       0.04      0.000
10:01am           353          0          2         45         82       74.7       78.7      29.36       78.7        524       1488       1927       3.20       0.00       0.04      0.000
10:02am           338          3          3         45         82       74.7       78.8      29.36       78.8        522       1489       1931       3.25       0.00       0.04      0.000
10:03am            31          0          4         45         81       74.7       78.8      29.36       78.8        523       1580       1933       3.20       0.00       0.04      0.000
10:04am            89          3          4         45         81       74.7       78.9      29.36       78.9        522       1580       1938       3.24       0.00       0.04      0.000
10:05am            89          2          4         45         82       74.7       79.0      29.36       79.0        520       1490       1942       3.29       0.00       0.04      0.000
10:06am            91          1          3         45         80       74.7       79.0      29.36       79.0        519       1673       1941       3.24       0.00       0.04      0.000
10:07am            93          3          5         45         82       74.5       79.0      29.36       79.0        518       1490       1939       3.18       0.00       0.04      0.000
10:08am           210          1          5         45         82       74.5       79.0      29.36       79.0        520       1490       1942       3.13       0.00       0.04      0.000
10:09am           330          3          5         45         80       74.5       78.9      29.36       78.9        518       1672       1933       2.98       0.00       0.04      0.000
10:10am           327          1          6         45         80       74.5       79.0      29.36       79.0        519       1673       1941       3.03       0.00       0.04      0.000
10:11am            19          0          2         45         81       74.5       79.0      29.36       79.0        518       1581       1939       2.98       0.00       0.04      0.000
10:12am            17          2          3         45         80       74.5       79.1      29.37       79.1        515       1674       1942       3.03       0.00       0.04      0.000
10:13am            17          0          3         45         80       74.5       79.1      29.37       79.1        512       1674       1939       2.98       0.00       0.04      0.000
10:14am            16          0          3         45         80       74.5       79.2      29.37       79.2        512       1674       1944       3.03       0.00       0.04      0.000
10:15am           310          0          3         45         81       74.5       79.3      29.37       79.3        512       1583       1950       3.07       0.00       0.04      0.000
10:16am           310          1          2         45         81       74.5       79.4      29.37       79.4        512       1584       1958       3.12       0.00       0.04      0.000
10:17am           151          1          2         45         81       74.5       79.5      29.37       79.5        512       1584       1964       3.17       0.00       0.04      0.000
10:18am           159          1          2         45         81       74.5       79.6      29.37       79.6        512       1585       1969       3.22       0.00       0.04      0.000
10:19am           207          4          4         45         81       74.5       79.7      29.37       79.7        512       1586       1976       3.26       0.00       0.04      0.000
10:20am            55          2          4         45         81       74.5       79.8      29.37       79.8        512       1586       1983       3.31       0.00       0.04      0.000
10:21am            99          2          4         45         80       74.5       79.8      29.37       79.8        512       1679       1983       3.25       0.00       0.04      0.000
10:22am           139          1          5         45         80       74.5       79.8      29.37       79.8        513       1679       1984       3.20       0.00       0.04      0.000
10:23am           150          2          5         45         80       74.5       79.9      29.37       79.9        513       1679       1990       3.25       0.00       0.04      0.000
10:24am           240          2          5         46         80       74.5       80.0      29.37       80.0        512       1680       1995       3.29       0.00       0.04      0.000
10:25am            77          2          5         45         81       74.5       80.0      29.37       80.0        513       1588       1996       3.24       0.00       0.04      0.000
10:26am            77          2          2         45         81       74.7       80.1      29.37       80.1        513       1588       2003       3.28       0.00       0.04      0.000
10:27am            74          1          2         45         81       74.7       80.2      29.37       80.2        514       1589       2010       3.33       0.00       0.04      0.000
10:28am            74          1          2         45         80       74.7       80.3      29.37       80.3        515       1682       2017       3.37       0.00       0.04      0.000
10:29am            25          2          3         45         80       74.7       80.3      29.37       80.3        515       1682       2017       3.31       0.00       0.04      0.000
10:30am            25          1          3         45         80       74.5       80.5      29.37       80.5        516       1683       2031       3.46       0.00       0.04      0.000
10:31am            25          1          2         45         80       74.5       80.5      29.37       80.5        514       1683       2029       3.40       0.00       0.04      0.000
10:32am            78          2          3         45         79       74.5       80.5      29.37       80.5        515       1777       2030       3.34       0.00       0.04      0.000
10:33am           347          0          3         45         79       74.5       80.6      29.37       80.6        517       1778       2038       3.39       0.00       0.04      0.000
10:34am           347          0          3         45         80       74.5       80.7      29.37       80.7        517       1685       2044       3.43       0.00       0.04      0.000
10:35am           345          1          3         45         80       74.5       80.7      29.37       80.7        516       1685       2043       3.38       0.00       0.04      0.000
10:36am           218          3          3         45         79       74.5       80.8      29.37       80.8        516       1779       2050       3.42       0.00       0.04      0.000
10:37am            39          3          6         45         78       74.5       80.7      29.37       80.7        516       1873       2043       3.26       0.00       0.04      0.000
10:38am           193          1          6         45         79       74.5       80.7      29.37       80.7        516       1778       2043       3.21       0.00       0.04      0.000
10:39am           193          0          6         45         79       74.5       80.7      29.37       80.7        514       1778       2041       3.16       0.00       0.04      0.000
10:40am           193          0          6         45         78       74.5       80.6      29.37       80.6        513       1872       2034       3.00       0.00       0.04      0.000
10:41am            92          2          5         45         79       74.5       80.7      29.37       80.7        513       1778       2040       3.05       0.00       0.04      0.000
10:42am            97          4          5         45         78       74.3       80.7      29.37       80.7        514       1873       2041       3.00       0.00       0.04      0.000
10:43am            96          0          5         45         80       74.3       80.7      29.37       80.7        514       1685       2041       2.95       0.00       0.04      0.000
10:44am           256          2          5         45         79       74.3       80.7      29.37       80.7        512       1778       2039       2.90       0.00       0.04      0.000
10:45am           237          1          5         45         80       74.3       80.7      29.37       80.7        512       1685       2039       2.86       0.00       0.04      0.000
10:46am           294          4          5         45         79       74.3       80.8      29.37       80.8        513       1779       2046       2.91       0.00       0.04      0.000
10:47am           251          3          5         45         78       74.3       80.7      29.37       80.7        512       1873       2039       2.76       0.00       0.04      0.000
10:48am           243          1          5         45         78       74.3       80.7      29.37       80.7        512       1873       2039       2.72       0.00       0.04      0.000
10:49am           351          4          5         45         78       74.3       80.7      29.37       80.7        513       1873       2040       2.67       0.00       0.04      0.000
10:50am            79          1          5         45         79       74.3       80.7      29.37       80.7        512       1778       2039       2.63       0.00       0.04      0.000
10:51am            73          2          3         45         79       74.2       80.8      29.37       80.8        513       1779       2046       2.68       0.00       0.04      0.000
10:52am            73          1          3         45         79       74.2       80.8      29.37       80.8        515       1779       2048       2.64       0.00       0.04      0.000
10:53am            73          1          3         45         79       74.2       80.8      29.37       80.8        516       1779       2050       2.59       0.00       0.04      0.000
10:54am            73          2          3         45         79       74.2       81.0      29.37       81.0        514       1781       2060       2.75       0.00       0.04      0.000
10:55am            73          2          3         45         78       74.2       81.1      29.37       81.1        516       1876       2068       2.80       0.00       0.04      0.000
10:56am            81          4          4         45         78       74.2       81.2      29.37       81.2        515       1877       2073       2.86       0.00       0.04      0.000
10:57am            81          2          4         45         79       74.2       81.3      29.37       81.3        516       1783       2081       2.91       0.00       0.04      0.000

Data provided from:  Mark Hofmann's Bel Air, MD Weather Station